Location: Mentone
(34.5413°N, 85.5351°W)
Time: 07:32:44
(UTC-05:00)

Cosmos 2150 Rocket - Visible Passes

Search period start: 25 April 2015 00:00
Search period end: 05 May 2015 00:00
Orbit: 750 x 808 km, 74.0° (Epoch: 25 April)

Date Brightness Start Highest point End Pass type
(mag) Time Alt. Az. Time Alt. Az. Time Alt. Az.
25 Apr 7.2 05:17:32 10° ESE 05:18:51 11° E 05:20:32 10° ENE visible
28 Apr 6.2 05:15:38 10° SSE 05:19:48 26° E 05:24:04 10° NE visible
29 Apr 6.7 04:43:27 10° SE 04:46:16 15° E 04:49:20 10° ENE visible
01 May 4.6 05:15:48 10° S 05:20:50 59° ESE 05:25:54 10° NNE visible
02 May 5.5 04:42:39 10° SSE 04:47:14 34° E 04:51:53 10° NE visible
03 May 6.3 04:10:02 10° SE 04:13:40 21° E 04:17:30 10° NE visible
04 May 6.7 03:38:33 10° ESE 03:40:09 12° E 03:42:07 10° ENE visible
04 May 4.1 05:16:54 10° SSW 05:21:59 61° WNW 05:27:05 10° N visible
